Regional Weather Roundup
Issued by NWS

Home | Current Version | Previous Version | Graphics & Text | Print | Product List | Glossary On
Versions: 1 2 3 4 5 6 7 8 9 10 11 12 13 14 15 16 17 18 19 20 21 22 23 24 25 26 27 28 29 30 31 32 33 34 35 36 37 38 39 40 41 42 43 44 45 46 47 48 49 50
000
ASUS45 KCYS 232210
RWRWY

WYOMING REGIONAL WEATHER ROUNDUP
NATIONAL WEATHER SERVICE CHEYENNE WY
400 PM MDT SAT MAY 23 2015

NOTE:  "FAIR" INDICATES FEW OR NO CLOUDS BELOW 12,000 FEET
WITH NO SIGNIFICANT WEATHER AND/OR OBSTRUCTIONS TO VISIBILITY.

WYZ001-232300-
YELLOWSTONE NATIONAL PARK

CITY           SKY/WX    TMP DP  RH WIND       PRES   REMARKS
LK YELLOWSTONE   N/A     46  39  76 VRB3      30.06F
W YELLOWSTONE  NOT AVBL

$$
WYZ002>013-054>058-071-098>099-232300-
NORTHERN WYOMING

CITY           SKY/WX    TMP DP  RH WIND       PRES   REMARKS
JACKSON        MOSUNNY   48  41  76 CALM      30.01S
CODY           PTSUNNY   48  45  87 NW6       30.01F
GREYBULL       FAIR      63  48  58 NW15      29.92F
WORLAND        FAIR      60  47  61 NW9       29.93F
SHERIDAN       CLOUDY    55  48  77 N7        30.02S
BUFFALO        CLOUDY    51  48  89 N9        30.03R
GILLETTE       PTSUNNY   59  46  62 E8        30.00S
HULETT         CLOUDY    55  46  71 E13       30.03S
NEWCASTLE      MOCLDY    61  43  51 SE9G16    29.99F

$$
WYZ014>020-022>026-101>103-232300-
CENTRAL WYOMING

CITY           SKY/WX    TMP DP  RH WIND       PRES   REMARKS
BIG PINEY      FAIR      55  33  43 CALM      29.97F
PINEDALE       FAIR      52  34  50 NW3       29.98F THUNDER
DUBOIS         FAIR      45  37  76 NW6       30.00F
LANDER         LGT RAIN  55  45  68 NW15G24   29.90F
RIVERTON         N/A    N/A N/A N/A MISG      29.91F
CASPER         CLOUDY    57  43  59 SE15G23   29.94S
DOUGLAS        FAIR      63  47  55 SE10      29.94F

$$
WYZ021-027>030-104>119-232300-
SOUTHERN WYOMING

CITY           SKY/WX    TMP DP  RH WIND       PRES   REMARKS
EVANSTON       PTSUNNY   42  39  89 W12       29.98F
KEMMERER       LGT RAIN  45  34  65 NW7       30.00F
FORT BRIDGER   CLOUDY    52  34  50 CALM      29.99F
ROCK SPRINGS   FAIR      57  38  48 N10       29.94F
DIXON          CLOUDY    54  36  51 SW14G22   30.00R THUNDER
RAWLINS        LGT RAIN  45  40  82 SW12      30.00S
SARATOGA       CLOUDY    45  41  87 NW8       30.02R THUNDER
LARAMIE        FAIR      53  38  56 SE15      29.94F
CHEYENNE       CLOUDY    54  44  69 SW8       29.95S
TORRINGTON     CLOUDY    57  52  83 E16       29.92F
PINE BLUFFS    CLOUDY    54  52  94 E16G23    29.93S

$$


USA.gov is the U.S. government's official web portal to all federal, state and local government web resources and services.